Location: Bas Lanzent
(48.1360°N, 3.5871°W)
Time: 08:29:08
(UTC+00:00)

SKYMED 2 - Pass Details

Date: 18 February 2020
Orbit: 621 x 623 km, 97.9° (Epoch: 31 March)

Event Time Altitude Azimuth Distance (km) Brightness Sun altitude
Rises 05:05:41 0° 158° (SSE) 2,893 7.2 -22.5°
Reaches altitude 10° 05:07:52 10° 155° (SSE) 1,991 6.4 -22.2°
Maximum altitude 05:12:11 68° 73° (ENE) 676 3.9 -21.4°
Drops below altitude 10° 05:16:31 10° 351° (N) 2,007 6.1 -20.7°
Sets 05:18:43 0° 349° (N) 2,919 7.0 -20.4°
